| time (UTC) | temp C | wind direction | speed KPH | gust KPH | rain 1hr cm | rain 24hr cm | rain mn cm | humidity % | barometer mb |
| 20260504041551 | 9 | 238 | 4.8 | 12.9 | 0.00 | 0.00 | 0.00 | 38 | 1013.2 |
| 20260504040049 | 10 | 264 | 4.8 | 11.3 | 0.00 | 0.00 | 0.00 | 37 | 1013.1 |
| 20260504034551 | 10 | 223 | 4.8 | 11.3 | 0.00 | 0.00 | 0.00 | 37 | 1013.1 |
| 20260504033047 | 10 | 207 | 4.8 | 12.9 | 0.00 | 0.00 | 0.00 | 37 | 1013.0 |
| 20260504031548 | 10 | 205 | 1.6 | 11.3 | 0.00 | 0.00 | 0.00 | 37 | 1013.2 |
| 20260504030044 | 10 | 213 | 3.2 | 8.0 | 0.00 | 0.00 | 0.00 | 37 | 1013.3 |
| 20260504024545 | 10 | 213 | 1.6 | 9.7 | 0.00 | 0.00 | 0.00 | 36 | 1013.4 |
| 20260504023043 | 10 | 215 | 4.8 | 9.7 | 0.00 | 0.00 | 0.00 | 36 | 1013.4 |
| 20260504021542 | 11 | 219 | 4.8 | 9.7 | 0.00 | 0.00 | 0.00 | 34 | 1013.6 |
| 20260504020124 | 11 | 219 | 6.4 | 9.7 | 0.00 | 0.00 | 0.00 | 34 | 1013.4 |
| 20260504014555 | 11 | 219 | 4.8 | 8.0 | 0.00 | 0.00 | 0.00 | 34 | 1013.4 |
| 20260504013050 | 11 | 219 | 3.2 | 6.4 | 0.00 | 0.00 | 0.00 | 33 | 1013.4 |
| 20260504011540 | 11 | 219 | 3.2 | 6.4 | 0.00 | 0.00 | 0.00 | 32 | 1013.4 |
| 20260504010044 | 12 | 219 | 4.8 | 9.7 | 0.00 | 0.00 | 0.00 | 31 | 1013.4 |
| 20260504004600 | 12 | 217 | 6.4 | 11.3 | 0.00 | 0.00 | 0.00 | 30 | 1013.4 |
| 20260504003047 | 12 | 221 | 4.8 | 12.9 | 0.00 | 0.00 | 0.00 | 30 | 1013.4 |
| 20260504001607 | 12 | 232 | 6.4 | 16.1 | 0.00 | 0.00 | 0.00 | 29 | 1013.3 |
| 20260504000041 | 12 | 234 | 8.0 | 20.9 | 0.00 | 0.00 | 0.00 | 29 | 1013.3 |
| 20260503234536 | 13 | 266 | 11.3 | 29.0 | 0.00 | 0.00 | 0.00 | 28 | 1013.3 |
| 20260503233040 | 13 | 225 | 14.5 | 32.2 | 0.00 | 0.00 | 0.00 | 26 | 1013.4 |
| 20260503231534 | 13 | 217 | 14.5 | 24.1 | 0.00 | 0.00 | 0.00 | 26 | 1013.4 |
| 20260503230036 | 13 | 235 | 19.3 | 37.0 | 0.00 | 0.00 | 0.00 | 25 | 1013.6 |
| 20260503224533 | 13 | 360 | 16.1 | 30.6 | 0.00 | 0.00 | 0.00 | 25 | 1013.5 |
| 20260503223032 | 13 | 211 | 16.1 | 25.7 | 0.00 | 0.00 | 0.00 | 26 | 1013.5 |
| 20260503221532 | 13 | 233 | 19.3 | 32.2 | 0.00 | 0.00 | 0.00 | 25 | 1013.9 |
| 20260503220041 | 14 | 238 | 19.3 | 30.6 | 0.00 | 0.00 | 0.00 | 24 | 1013.8 |
| 20260503214531 | 13 | 221 | 17.7 | 30.6 | 0.00 | 0.00 | 0.00 | 25 | 1013.7 |
| 20260503213031 | 14 | 286 | 19.3 | 32.2 | 0.00 | 0.00 | 0.00 | 24 | 1013.5 |
| 20260503211529 | 13 | 265 | 16.1 | 30.6 | 0.00 | 0.00 | 0.00 | 26 | 1013.5 |
| 20260503210027 | 13 | 262 | 12.9 | 29.0 | 0.00 | 0.00 | 0.00 | 26 | 1013.6 |
| 20260503204526 | 13 | 242 | 17.7 | 29.0 | 0.00 | 0.00 | 0.00 | 26 | 1014.1 |
| 20260503203042 | 13 | 269 | 19.3 | 27.4 | 0.00 | 0.00 | 0.00 | 24 | 1014.1 |
| 20260503201526 | 13 | 217 | 11.3 | 25.7 | 0.00 | 0.00 | 0.00 | 28 | 1014.4 |
| 20260503200023 | 14 | 207 | 16.1 | 27.4 | 0.00 | 0.00 | 0.00 | 26 | 1014.5 |
| 20260503194534 | 13 | 256 | 17.7 | 27.4 | 0.00 | 0.00 | 0.00 | 26 | 1014.7 |
| 20260503193021 | 13 | 243 | 22.5 | 30.6 | 0.00 | 0.00 | 0.00 | 24 | 1014.8 |
| 20260503191517 | 13 | 360 | 24.1 | 33.8 | 0.00 | 0.00 | 0.00 | 25 | 1015.1 |
| 20260503190023 | 13 | 277 | 19.3 | 32.2 | 0.00 | 0.00 | 0.00 | 27 | 1015.4 |
| 20260503184522 | 13 | 280 | 16.1 | 33.8 | 0.00 | 0.00 | 0.00 | 26 | 1015.5 |
| 20260503183010 | 13 | 279 | 14.5 | 32.2 | 0.00 | 0.00 | 0.00 | 27 | 1015.8 |
| 20260503181509 | 12 | 298 | 14.5 | 29.0 | 0.00 | 0.00 | 0.00 | 28 | 1015.7 |
| 20260503180008 | 12 | 267 | 12.9 | 19.3 | 0.00 | 0.00 | 0.00 | 28 | 1016.0 |
| 20260503174505 | 12 | 212 | 14.5 | 24.1 | 0.00 | 0.00 | 0.00 | 27 | 1016.1 |
| 20260503173004 | 11 | 265 | 16.1 | 37.0 | 0.00 | 0.00 | 0.00 | 28 | 1016.5 |
| 20260503171503 | 11 | 302 | 17.7 | 33.8 | 0.00 | 0.00 | 0.00 | 30 | 1016.5 |
| 20260503081524 | 1 | 282 | 4.8 | 8.0 | 0.00 | 0.00 | 0.00 | 69 | 1016.5 |
| 20260503071505 | 2 | 284 | 3.2 | 6.4 | 0.00 | 0.00 | 0.00 | 68 | 1016.2 |
| 20260503060118 | 2 | 325 | 1.6 | 4.8 | 0.00 | 0.00 | 0.00 | 67 | 1016.2 |
| 20260503054613 | 2 | 325 | 1.6 | 4.8 | 0.00 | 0.00 | 0.00 | 67 | 1016.3 |
| 20260503053055 | 2 | 325 | 0.0 | 4.8 | 0.00 | 0.00 | 0.00 | 67 | 1016.5 |
| 20260503051553 | 2 | 325 | 1.6 | 4.8 | 0.00 | 0.00 | 0.00 | 67 | 1016.6 |
| 20260503050053 | 2 | 327 | 1.6 | 4.8 | 0.00 | 0.00 | 0.00 | 67 | 1016.6 |
| 20260503044552 | 2 | 327 | 3.2 | 6.4 | 0.00 | 0.00 | 0.00 | 67 | 1016.6 |
| 20260503043050 | 2 | 333 | 3.2 | 6.4 | 0.00 | 0.00 | 0.00 | 66 | 1016.6 |